Weather History for KDHN - February, 2014

Change the Weather History Date:

Sunday, February 23, 2014

  Actual Average Record
Temperature  
Mean Temperature 54 °F 55 °F  
Max Temperature 61 °F 67 °F 80 °F (1944)
Min Temperature 47 °F 43 °F 24 °F (1964)
Degree Days  
Heating Degree Days 11 11  
Month to date heating degree days 265 294  
Since 1 July heating degree days 1602 1510  
Growing Degree Days 4 (Base 50)    
Moisture  
Dew Point 54 °F    
Average Humidity 92    
Maximum Humidity 100    
Minimum Humidity 71    
Precipitation  
Precipitation 0.16 in 0.17 in 1.15 in (1961)
Month to date precipitation 4.35 3.96  
Year to date precipitation 7.28 8.59  
Sea Level Pressure  
Sea Level Pressure 30.05 in    
Wind  
Wind Speed 4 mph (South)    
Max Wind Speed 10 mph    
Max Gust Speed -    
Visibility 6 miles    
Events Fog , Rain    
T = Trace of Precipitation, MM = Missing Value Source: NWS Daily Summary

Daily Weather History Graph

Daily Weather History Graph

Search for Another Location

Airport or City:

Trip Planner

Search our weather history database for the weather conditions in past years. The results will help you decide how hot, cold, wet, or windy it might be!

Date:

Astronomy

Feb. 23, 2014 Rise Set
Actual Time 6:15 AM CST 5:35 PM CST
Civil Twilight 5:50 AM CST 6:00 PM CST
Nautical Twilight 5:22 AM CST 6:28 PM CST
Astronomical Twilight 4:54 AM CST 6:56 PM CST
Moon 1:01 AM CST (2/23) 11:48 AM CST (2/23)
Length of Visible Light 12h 09m
Length of Day
11h 20m
Last Quarter, 38% of the Moon is Illuminated
Feb 23
Last Quarter
Mar 1
New
Mar 8
First Quarter
Mar 16
Full
Mar 23
Last Quarter

Hourly Weather History & Observations

Time (CST) Temp. Dew Point Humidity Pressure Visibility Wind Dir Wind Speed Gust Speed Precip Events Conditions
12:53 AM 50.0 °F 43.0 °F 77% 30.08 in 10.0 mi Calm Calm - N/A   Clear
1:53 AM 48.9 °F 43.0 °F 80% 30.06 in 10.0 mi Calm Calm - N/A   Clear
2:53 AM 50.0 °F 41.0 °F 71% 30.05 in 10.0 mi Calm Calm - N/A   Clear
3:53 AM 51.1 °F 44.1 °F 77% 30.06 in 10.0 mi Calm Calm - N/A   Partly Cloudy
4:53 AM 51.1 °F 43.0 °F 74% 30.03 in 10.0 mi Calm Calm - N/A   Clear
5:53 AM 53.1 °F 44.1 °F 71% 30.06 in 10.0 mi NNE 3.5 mph - N/A   Mostly Cloudy
6:06 AM 53.6 °F 44.6 °F 72% 30.07 in 10.0 mi Calm Calm - 0.00 in Rain Light Rain
6:53 AM 52.0 °F 46.0 °F 80% 30.09 in 10.0 mi SSE 3.5 mph - 0.00 in Rain Light Rain
7:18 AM 51.8 °F 44.6 °F 76% 30.09 in 10.0 mi ESE 5.8 mph - 0.00 in   Overcast
7:53 AM 51.1 °F 46.9 °F 86% 30.11 in 10.0 mi NE 10.4 mph - 0.00 in   Overcast
8:53 AM 52.0 °F 51.1 °F 97% 30.11 in 5.0 mi East 5.8 mph - 0.00 in   Overcast
9:04 AM 53.6 °F 51.8 °F 94% 30.12 in 10.0 mi SE 5.8 mph - N/A   Overcast
9:17 AM 53.6 °F 51.8 °F 94% 30.12 in 10.0 mi SSE 9.2 mph - 0.00 in Rain Light Rain
9:53 AM 53.1 °F 52.0 °F 96% 30.11 in 4.0 mi SE 5.8 mph - 0.02 in Rain Light Rain
10:53 AM 55.0 °F 54.0 °F 96% 30.10 in 3.0 mi ESE 6.9 mph - 0.04 in Rain Light Rain
11:08 AM 55.4 °F 55.4 °F 100% 30.09 in 2.0 mi NE 6.9 mph - 0.00 in Rain Light Rain
11:11 AM 55.4 °F 55.4 °F 100% 30.08 in 2.0 mi NE 8.1 mph - 0.00 in Rain Light Rain
11:22 AM 57.2 °F 55.4 °F 94% 30.08 in 3.0 mi ENE 5.8 mph - 0.01 in Rain Light Rain
11:53 AM 57.0 °F 55.9 °F 96% 30.07 in 3.0 mi SE 4.6 mph - 0.03 in Rain Light Rain
12:53 PM 57.9 °F 57.0 °F 97% 30.05 in 5.0 mi South 5.8 mph - 0.05 in Rain Light Rain
1:53 PM 59.0 °F 57.9 °F 96% 30.03 in 10.0 mi Calm Calm - 0.02 in   Overcast
2:53 PM 60.1 °F 59.0 °F 96% 30.01 in 10.0 mi South 8.1 mph - 0.00 in Rain Light Rain
3:04 PM 60.8 °F 59.0 °F 94% 30.02 in 10.0 mi South 5.8 mph - 0.00 in Rain Light Rain
3:19 PM 60.8 °F 59.0 °F 94% 30.02 in 10.0 mi South 9.2 mph - 0.00 in Rain Light Rain
3:42 PM 60.8 °F 59.0 °F 94% 30.02 in 10.0 mi South 5.8 mph - 0.00 in Rain Light Rain
3:53 PM 60.1 °F 59.0 °F 96% 30.02 in 10.0 mi South 5.8 mph - 0.00 in Rain Light Rain
4:19 PM 60.8 °F 59.0 °F 94% 30.02 in 10.0 mi South 5.8 mph - 0.00 in Rain Light Rain
4:53 PM 60.1 °F 59.0 °F 96% 30.02 in 10.0 mi South 9.2 mph - 0.00 in   Overcast
5:53 PM 60.1 °F 59.0 °F 96% 30.01 in 10.0 mi SSW 5.8 mph - 0.00 in   Overcast
6:17 PM 60.8 °F 59.0 °F 94% 30.01 in 10.0 mi South 6.9 mph - N/A   Overcast
6:53 PM 60.1 °F 60.1 °F 100% 30.01 in 8.0 mi SSW 4.6 mph - N/A   Overcast
7:46 PM 60.8 °F 60.8 °F 100% 30.03 in 1.8 mi WSW 4.6 mph - N/A   Overcast
7:53 PM 60.1 °F 60.1 °F 100% 30.03 in 1.2 mi WSW 4.6 mph - N/A   Overcast
8:06 PM 60.8 °F 60.8 °F 100% 30.04 in 0.8 mi WSW 5.8 mph - N/A   Mist
8:53 PM 60.1 °F 60.1 °F 100% 30.03 in 0.5 mi SW 5.8 mph - N/A Fog Fog
9:28 PM 60.8 °F 60.8 °F 100% 30.04 in 0.2 mi SSW 5.8 mph - N/A Fog Fog
9:53 PM 60.1 °F 60.1 °F 100% 30.04 in 0.2 mi SSW 4.6 mph - N/A Fog Fog
10:25 PM 60.8 °F 60.8 °F 100% 30.05 in 0.5 mi SSW 6.9 mph - N/A Fog Fog
10:53 PM 60.1 °F 60.1 °F 100% 30.06 in 0.2 mi WSW 6.9 mph - N/A Fog Fog
11:20 PM 60.8 °F 60.8 °F 100% 30.06 in 0.5 mi West 6.9 mph - N/A Fog Fog
11:53 PM 61.0 °F 60.1 °F 97% 30.05 in 0.5 mi West 6.9 mph - N/A Fog Fog